Preview of NWS' New Version of Forecast
This preview is not operational and should not be used for support decisions.

Regional Weather Roundup (RWR)

Issued by Philadelphia/Mt Holly (PHI)

                            
000
ASUS41 KPHI 220812
RWRPHI

REGIONAL WEATHER ROUNDUP
NATIONAL WEATHER SERVICE MOUNT HOLLY NJ
400 AM EDT FRI MAR 22 2019

NOTE:  "FAIR" INDICATES FEW OR NO CLOUDS BELOW 12,000 FEET WITH NO
SIGNIFICANT WEATHER AND/OR OBSTRUCTIONS TO VISIBILITY.

 * = STATION DOES NOT REPORT PRECIPITATION (E.G. RAIN, SNOW, ETC.) 
        OR FOG.

NJZ015>026-220900-
SOUTHERN NEW JERSEY
  
CITY           SKY/WX    TMP DP  RH WIND       PRES   REMARKS
POMONA         LGT RAIN  46  46 100 NW5       29.28F FOG              
WILDWOOD*      LGT RAIN  46  45  93 NW9G22    29.30S FOG              
MILLVILLE      LGT RAIN  46  46 100 NW14      29.30F                  
WRIGHTSTOWN    LGT RAIN  44  44 100 N14       29.29F                  
MOUNT HOLLY    LGT RAIN  45  42  89 N13       29.33F                  
TRENTON        CLOUDY    44  43  96 N9        29.33F                  

$$
NJZ001>014-220900-
NORTHERN NEW JERSEY
  
CITY           SKY/WX    TMP DP  RH WIND       PRES   REMARKS
SUSSEX         LGT RAIN  41  39  93 NE10G21   29.41F                  
ANDOVER*         N/A     39  37  92 VRB7      29.40F WCI  34          
MORRISTOWN     RAIN      43  43 100 N10G17    29.35F                  
NEWARK         LGT RAIN  44  43  96 N20       29.33F FOG              
TETERBORO      LGT RAIN  44  42  93 N12       29.34F FOG              
CALDWELL       LGT RAIN  43  43 100 N8        29.35F FOG              
SOMERVILLE     LGT RAIN  46  42  86 N10G16    29.33F                  
ALLAIRE*       LGT RAIN  44  43  96 N9        29.29F FOG              
TOMS RIVER*    LGT RAIN  46  46 100 N8        29.29F FOG              

$$
PAZ043-044-047-054-055-060>062-066>071-220900-
EASTERN PENNSYLVANIA
  
CITY           SKY/WX    TMP DP  RH WIND       PRES   REMARKS
PHILADELPHIA   RAIN      45  43  93 N17G23    29.36S FOG              
NORTH PHILA    LGT RAIN  46  42  86 NW10      29.36F                  
BLUE BELL*     CLOUDY    41  41 100 NW9       29.39F                  
DOYLESTOWN     LGT RAIN  42  40  92 NW12G17   29.36F                  
QUAKERTOWN*    CLOUDY    41  41 100 NW13G21   29.40  FOG              
PERKASIE*      RAIN      41  41 100 NW15G23   29.39F                  
POTTSTOWN      HVY RAIN  41  41 100 NW14      29.42F FOG              
LANCASTER      LGT RAIN  42  39  89 NW17G31   29.47F                  
COATESVILLE    LGT RAIN  39  39 100 NW20G26   29.43S WCI  30          
READING        LGT RAIN  41  40  96 N12G22    29.45F                  
ALLENTOWN      LGT RAIN  42  36  79 NW16G26   29.42F                  
MOUNT POCONO   LGT SNOW  32  32 100 NW17      29.42F FOG     WCI  21  
HAZLETON       MIX PCPN  34  34 100 N12       29.50F WCI  25          
LEHIGHTON      RAIN      37  36  93 NW12G18   29.47F WCI  30          
WILKES BARRE   LGT RAIN  37  35  92 NE8       29.51F WCI  31          

$$
DEZALL-MDZ008-012-015-019-020-220900-
DELAWARE AND EASTERN MARYLAND
  
CITY           SKY/WX    TMP DP  RH WIND       PRES   REMARKS
WILMINGTON     LGT RAIN  44  41  89 NW20G28   29.39S                  
DOVER          LGT RAIN  45  44  99 NW21G31   29.35R FOG              
GEORGETOWN     LGT RAIN  48  44  86 NW10G28   29.37R                  
EASTON         LGT RAIN  45  42  92 NW18G25   29.49S                  
PATUXENT       CLOUDY    45  42  89 W23G36    29.51                   
OCEAN CITY     LGT RAIN  45  43  93 W18G28    29.37R FOG              
WALLOPS ISLAND LGT RAIN  45  42  89 W25G37    29.45R                  
CAMBRIDGE      CLOUDY    43  41  93 W18G30    29.47R                  
SALISBURY      LGT RAIN  44  43  96 W22G30    29.42R                  

$$
PAZ001-021-NYZ056-072-MDZ011-DCZ001-220900-
OTHER NEARBY LOCATIONS
  
CITY           SKY/WX    TMP DP  RH WIND       PRES   REMARKS
HARRISBURG     LGT RAIN  41  37  86 NW15      29.52F                  
STATE COLLEGE  DRIZZLE   39  36  87 NW7G18    29.61F WCI  34          
WILLIAMSPORT   CLOUDY    38  36  92 W9        29.57F WCI  31          
BINGHAMTON     LGT SNOW  32  32 100 N9        29.53F FOG     WCI  24  
NEW YORK CITY  LGT RAIN  45  43  93 NE17G30   29.35  FOG              
BALTIMORE      LGT RAIN  42  39  89 NW14G30   29.49R                  
WASHINGTON DC  CLOUDY    45  38  76 NW17      29.56R                  

$$